| time (UTC) | temp F | wind direction | speed MPH | gust MPH | rain 1hr in | rain 24hr in | rain mn in | humidity % | barometer mb |
| 20260510044815 | 69 | 177 | 1.0 | 4.0 | 0.00 | 0.04 | 0.00 | 94 | 1012.1 |
| 20260510044316 | 69 | 177 | 1.0 | 5.0 | 0.00 | 0.04 | 0.00 | 94 | 1012.1 |
| 20260510043813 | 69 | 173 | 1.0 | 5.0 | 0.00 | 0.04 | 0.00 | 94 | 1012.1 |
| 20260510043314 | 69 | 180 | 2.0 | 5.0 | 0.00 | 0.04 | 0.00 | 94 | 1012.2 |
| 20260510042812 | 69 | 180 | 2.0 | 5.0 | 0.00 | 0.04 | 0.00 | 94 | 1012.3 |
| 20260510042651 | 69 | 178 | 2.0 | 5.0 | 0.00 | 0.04 | 0.00 | 94 | 1012.2 |
| 20260510041809 | 69 | 197 | 2.0 | 5.0 | 0.00 | 0.04 | 0.00 | 94 | 1012.2 |
| 20260510041304 | 69 | 163 | 2.0 | 5.0 | 0.00 | 0.04 | 0.00 | 94 | 1012.2 |
| 20260510040804 | 69 | 180 | 1.0 | 4.0 | 0.00 | 0.04 | 0.00 | 94 | 1012.1 |
| 20260510040621 | 69 | 175 | 1.0 | 4.0 | 0.00 | 0.04 | 0.00 | 94 | 1012.0 |
| 20260510035801 | 69 | 156 | 1.0 | 4.0 | 0.00 | 0.04 | 0.04 | 94 | 1012.0 |
| 20260510035301 | 69 | 179 | 0.0 | 4.0 | 0.00 | 0.04 | 0.04 | 94 | 1012.0 |
| 20260510034800 | 69 | 180 | 0.0 | 2.0 | 0.00 | 0.04 | 0.04 | 94 | 1012.0 |
| 20260510034627 | 69 | 180 | 0.0 | 2.0 | 0.00 | 0.04 | 0.04 | 94 | 1012.0 |
| 20260510034116 | 69 | 180 | 0.0 | 1.0 | 0.00 | 0.04 | 0.04 | 94 | 1011.7 |
| 20260510033301 | 69 | 180 | 0.0 | 2.0 | 0.00 | 0.04 | 0.04 | 94 | 1011.5 |
| 20260510032803 | 69 | 182 | 1.0 | 2.0 | 0.00 | 0.04 | 0.04 | 94 | 1011.7 |
| 20260510032305 | 69 | 185 | 1.0 | 2.0 | 0.00 | 0.04 | 0.04 | 93 | 1011.8 |
| 20260510032123 | 69 | 182 | 0.0 | 2.0 | 0.00 | 0.05 | 0.04 | 94 | 1011.7 |
| 20260510031416 | 69 | 165 | 1.0 | 3.0 | 0.00 | 0.05 | 0.04 | 93 | 1011.6 |
| 20260510030302 | 69 | 167 | 1.0 | 3.0 | 0.00 | 0.05 | 0.04 | 94 | 1011.4 |
| 20260510030128 | 69 | 168 | 0.0 | 2.0 | 0.00 | 0.05 | 0.04 | 93 | 1011.3 |
| 20260510025306 | 69 | 168 | 0.0 | 2.0 | 0.00 | 0.05 | 0.04 | 94 | 1011.3 |
| 20260510024808 | 69 | 168 | 1.0 | 2.0 | 0.00 | 0.05 | 0.04 | 93 | 1011.4 |
| 20260510024300 | 69 | 168 | 1.0 | 2.0 | 0.00 | 0.06 | 0.04 | 93 | 1011.4 |
| 20260510024127 | 69 | 183 | 0.0 | 5.0 | 0.00 | 0.06 | 0.04 | 93 | 1011.5 |
| 20260510023303 | 69 | 178 | 1.0 | 5.0 | 0.00 | 0.07 | 0.04 | 93 | 1011.4 |
| 20260510022802 | 69 | 178 | 2.0 | 5.0 | 0.00 | 0.08 | 0.04 | 93 | 1011.3 |
| 20260510022622 | 69 | 215 | 2.0 | 5.0 | 0.00 | 0.08 | 0.04 | 93 | 1011.3 |
| 20260510021801 | 69 | 213 | 2.0 | 4.0 | 0.00 | 0.09 | 0.04 | 93 | 1011.3 |
| 20260510021303 | 69 | 227 | 1.0 | 3.0 | 0.00 | 0.09 | 0.04 | 93 | 1011.3 |
| 20260510020801 | 69 | 159 | 1.0 | 3.0 | 0.00 | 0.10 | 0.04 | 93 | 1011.2 |
| 20260510020301 | 69 | 170 | 1.0 | 3.0 | 0.00 | 0.10 | 0.04 | 93 | 1011.2 |
| 20260510015804 | 69 | 195 | 0.0 | 3.0 | 0.00 | 0.10 | 0.04 | 93 | 1011.1 |
| 20260510015306 | 69 | 195 | 1.0 | 3.0 | 0.00 | 0.10 | 0.04 | 93 | 1011.3 |
| 20260510014759 | 69 | 233 | 1.0 | 3.0 | 0.00 | 0.10 | 0.04 | 93 | 1011.2 |
| 20260510014647 | 69 | 233 | 1.0 | 3.0 | 0.00 | 0.10 | 0.04 | 93 | 1011.2 |
| 20260510013759 | 69 | 202 | 1.0 | 3.0 | 0.00 | 0.10 | 0.04 | 93 | 1011.1 |
| 20260510013258 | 69 | 175 | 1.0 | 3.0 | 0.00 | 0.11 | 0.04 | 93 | 1011.2 |
| 20260510012758 | 69 | 205 | 1.0 | 5.0 | 0.00 | 0.11 | 0.04 | 93 | 1011.2 |
| 20260510012256 | 69 | 205 | 1.0 | 7.0 | 0.00 | 0.11 | 0.04 | 93 | 1011.3 |
| 20260510012124 | 69 | 178 | 1.0 | 7.0 | 0.00 | 0.11 | 0.04 | 93 | 1011.1 |
| 20260510011254 | 69 | 182 | 2.0 | 7.0 | 0.00 | 0.11 | 0.04 | 93 | 1011.0 |
| 20260510010753 | 69 | 149 | 1.0 | 7.0 | 0.00 | 0.11 | 0.04 | 93 | 1011.0 |
| 20260510010254 | 69 | 153 | 1.0 | 5.0 | 0.00 | 0.11 | 0.04 | 93 | 1011.0 |
| 20260510005756 | 69 | 165 | 1.0 | 5.0 | 0.00 | 0.11 | 0.04 | 93 | 1011.0 |
| 20260510005253 | 70 | 152 | 1.0 | 5.0 | 0.00 | 0.11 | 0.04 | 93 | 1011.1 |
| 20260510004752 | 69 | 160 | 1.0 | 4.0 | 0.00 | 0.11 | 0.04 | 93 | 1011.0 |
| 20260510004626 | 70 | 198 | 1.0 | 5.0 | 0.00 | 0.11 | 0.04 | 93 | 1011.0 |
| 20260510003747 | 70 | 200 | 2.0 | 5.0 | 0.00 | 0.11 | 0.04 | 93 | 1010.8 |
| 20260510003247 | 70 | 198 | 1.0 | 4.0 | 0.00 | 0.11 | 0.04 | 93 | 1010.7 |
| 20260510002747 | 70 | 176 | 0.0 | 3.0 | 0.00 | 0.11 | 0.04 | 92 | 1010.6 |
| 20260510002616 | 70 | 225 | 1.0 | 3.0 | 0.00 | 0.11 | 0.04 | 92 | 1010.6 |
| 20260510001747 | 70 | 225 | 1.0 | 3.0 | 0.00 | 0.11 | 0.04 | 92 | 1010.5 |
| 20260510001247 | 70 | 225 | 1.0 | 3.0 | 0.00 | 0.11 | 0.04 | 92 | 1010.5 |
| 20260510001131 | 70 | 164 | 1.0 | 3.0 | 0.01 | 0.11 | 0.04 | 92 | 1010.3 |
| 20260510000244 | 70 | 133 | 1.0 | 3.0 | 0.01 | 0.11 | 0.04 | 92 | 1010.3 |
| 20260509235741 | 70 | 217 | 1.0 | 5.0 | 0.01 | 0.11 | 0.04 | 92 | 1010.3 |
| 20260509235241 | 70 | 206 | 2.0 | 5.0 | 0.01 | 0.11 | 0.04 | 91 | 1010.1 |
| 20260509234741 | 70 | 115 | 3.0 | 5.0 | 0.01 | 0.11 | 0.04 | 92 | 1009.8 |
| 20260509234240 | 70 | 169 | 2.0 | 5.0 | 0.01 | 0.11 | 0.04 | 91 | 1010.1 |
| 20260509233740 | 70 | 222 | 1.0 | 4.0 | 0.01 | 0.11 | 0.04 | 91 | 1010.1 |
| 20260509233241 | 70 | 127 | 2.0 | 4.0 | 0.01 | 0.11 | 0.04 | 91 | 1009.9 |
| 20260509232740 | 70 | 229 | 2.0 | 4.0 | 0.01 | 0.11 | 0.04 | 91 | 1010.0 |
| 20260509232241 | 71 | 215 | 1.0 | 4.0 | 0.01 | 0.11 | 0.04 | 91 | 1010.0 |
| 20260509231741 | 71 | 115 | 1.0 | 4.0 | 0.01 | 0.11 | 0.04 | 90 | 1010.0 |
| 20260509231236 | 71 | 24 | 0.0 | 2.0 | 0.01 | 0.11 | 0.04 | 90 | 1010.3 |
| 20260509230737 | 71 | 24 | 0.0 | 2.0 | 0.00 | 0.10 | 0.03 | 89 | 1010.2 |
| 20260509230236 | 71 | 24 | 1.0 | 4.0 | 0.00 | 0.10 | 0.03 | 89 | 1010.1 |
| 20260509225737 | 71 | 154 | 1.0 | 7.0 | 0.00 | 0.10 | 0.03 | 89 | 1010.1 |
| 20260509225236 | 71 | 138 | 1.0 | 7.0 | 0.00 | 0.10 | 0.03 | 89 | 1010.3 |
| 20260509224736 | 71 | 213 | 2.0 | 7.0 | 0.00 | 0.10 | 0.03 | 89 | 1010.3 |
| 20260509224236 | 71 | 158 | 2.0 | 7.0 | 0.00 | 0.10 | 0.03 | 89 | 1010.2 |
| 20260509223738 | 71 | 221 | 2.0 | 6.0 | 0.00 | 0.10 | 0.03 | 88 | 1010.2 |
| 20260509223238 | 71 | 164 | 1.0 | 5.0 | 0.00 | 0.10 | 0.03 | 89 | 1010.1 |
| 20260509223231 | 71 | 217 | 1.0 | 4.0 | 0.00 | 0.10 | 0.03 | 89 | 1009.9 |
| 20260509221733 | 71 | 210 | 2.0 | 5.0 | 0.00 | 0.10 | 0.03 | 88 | 1010.0 |
| 20260509221231 | 72 | 227 | 2.0 | 5.0 | 0.00 | 0.10 | 0.03 | 89 | 1009.9 |
| 20260509220730 | 71 | 224 | 3.0 | 5.0 | 0.00 | 0.10 | 0.03 | 88 | 1009.8 |
| 20260509220231 | 72 | 217 | 3.0 | 7.0 | 0.00 | 0.10 | 0.03 | 87 | 1009.9 |
| 20260509215734 | 72 | 227 | 3.0 | 7.0 | 0.00 | 0.10 | 0.03 | 88 | 1009.9 |
| 20260509215233 | 72 | 239 | 4.0 | 8.0 | 0.00 | 0.10 | 0.03 | 88 | 1010.0 |
| 20260509215102 | 72 | 214 | 5.0 | 8.0 | 0.00 | 0.10 | 0.03 | 88 | 1010.3 |
| 20260509214232 | 72 | 232 | 4.0 | 7.0 | 0.00 | 0.10 | 0.03 | 88 | 1010.3 |
| 20260509213731 | 72 | 224 | 4.0 | 7.0 | 0.00 | 0.10 | 0.03 | 87 | 1010.2 |
| 20260509213346 | 72 | 225 | 4.0 | 8.0 | 0.00 | 0.10 | 0.03 | 86 | 1010.3 |
| 20260509212229 | 72 | 230 | 5.0 | 8.0 | 0.00 | 0.10 | 0.03 | 86 | 1010.2 |
| 20260509211729 | 72 | 213 | 6.0 | 9.0 | 0.00 | 0.10 | 0.03 | 86 | 1010.4 |
| 20260509211228 | 72 | 216 | 6.0 | 9.0 | 0.00 | 0.10 | 0.03 | 85 | 1010.4 |
| 20260509210725 | 73 | 219 | 6.0 | 9.0 | 0.00 | 0.10 | 0.03 | 85 | 1010.3 |
| 20260509210225 | 73 | 219 | 7.0 | 9.0 | 0.01 | 0.10 | 0.03 | 85 | 1010.4 |
| 20260509205725 | 73 | 225 | 7.0 | 11.0 | 0.01 | 0.10 | 0.03 | 85 | 1010.3 |
| 20260509205226 | 73 | 223 | 7.0 | 11.0 | 0.01 | 0.10 | 0.03 | 85 | 1010.4 |
| 20260509204724 | 73 | 221 | 7.0 | 10.0 | 0.01 | 0.10 | 0.03 | 85 | 1010.4 |
| 20260509204225 | 73 | 223 | 6.0 | 9.0 | 0.01 | 0.10 | 0.03 | 85 | 1010.2 |
| 20260509203723 | 73 | 225 | 7.0 | 9.0 | 0.01 | 0.10 | 0.03 | 85 | 1010.1 |
| 20260509203547 | 73 | 213 | 5.0 | 9.0 | 0.01 | 0.10 | 0.03 | 86 | 1010.4 |
| 20260509202723 | 73 | 218 | 5.0 | 12.0 | 0.01 | 0.10 | 0.03 | 86 | 1010.3 |
| 20260509202547 | 73 | 223 | 5.0 | 12.0 | 0.01 | 0.10 | 0.03 | 87 | 1010.3 |
| 20260509201832 | 72 | 219 | 6.0 | 12.0 | 0.01 | 0.10 | 0.03 | 87 | 1010.2 |
| 20260509200724 | 72 | 217 | 7.0 | 12.0 | 0.01 | 0.10 | 0.03 | 87 | 1010.2 |
| 20260509200223 | 72 | 219 | 6.0 | 12.0 | 0.01 | 0.09 | 0.02 | 88 | 1010.1 |
| 20260509195722 | 72 | 222 | 3.0 | 9.0 | 0.01 | 0.09 | 0.02 | 88 | 1010.0 |
| 20260509195553 | 71 | 158 | 3.0 | 10.0 | 0.01 | 0.09 | 0.02 | 88 | 1009.6 |
| 20260509194716 | 71 | 144 | 4.0 | 10.0 | 0.01 | 0.09 | 0.02 | 88 | 1009.4 |
| 20260509194212 | 71 | 127 | 5.0 | 11.0 | 0.01 | 0.09 | 0.02 | 87 | 1009.4 |
| 20260509194045 | 72 | 142 | 4.0 | 11.0 | 0.01 | 0.09 | 0.02 | 87 | 1009.8 |
| 20260509193210 | 72 | 173 | 4.0 | 8.0 | 0.01 | 0.09 | 0.02 | 86 | 1009.8 |
| 20260509192710 | 72 | 126 | 4.0 | 10.0 | 0.01 | 0.09 | 0.02 | 86 | 1009.7 |
| 20260509192211 | 72 | 133 | 4.0 | 10.0 | 0.01 | 0.09 | 0.02 | 85 | 1009.7 |
| 20260509191704 | 73 | 98 | 4.0 | 9.0 | 0.01 | 0.09 | 0.02 | 84 | 1009.9 |
| 20260509191203 | 73 | 149 | 3.0 | 9.0 | 0.01 | 0.09 | 0.02 | 83 | 1010.0 |
| 20260509190702 | 73 | 153 | 3.0 | 9.0 | 0.02 | 0.09 | 0.02 | 82 | 1010.2 |
| 20260509190204 | 74 | 159 | 3.0 | 7.0 | 0.01 | 0.08 | 0.01 | 81 | 1010.3 |
| 20260509190022 | 74 | 192 | 3.0 | 7.0 | 0.01 | 0.08 | 0.01 | 79 | 1010.3 |
| 20260509185205 | 74 | 158 | 2.0 | 5.0 | 0.01 | 0.08 | 0.01 | 80 | 1010.4 |
| 20260509184705 | 74 | 179 | 3.0 | 6.0 | 0.01 | 0.08 | 0.01 | 81 | 1010.4 |
| 20260509184529 | 74 | 219 | 2.0 | 8.0 | 0.01 | 0.08 | 0.01 | 81 | 1010.6 |
| 20260509184024 | 75 | 240 | 2.0 | 8.0 | 0.01 | 0.08 | 0.01 | 81 | 1010.7 |
| 20260509183526 | 75 | 194 | 2.0 | 9.0 | 0.01 | 0.08 | 0.01 | 80 | 1010.6 |
| 20260509182702 | 75 | 185 | 2.0 | 9.0 | 0.01 | 0.08 | 0.01 | 80 | 1010.8 |
| 20260509182201 | 75 | 207 | 2.0 | 10.0 | 0.01 | 0.08 | 0.01 | 79 | 1010.9 |
| 20260509181702 | 76 | 180 | 3.0 | 10.0 | 0.01 | 0.08 | 0.01 | 80 | 1011.0 |
| 20260509181201 | 76 | 170 | 4.0 | 11.0 | 0.01 | 0.08 | 0.01 | 76 | 1011.0 |
| 20260509181017 | 77 | 184 | 4.0 | 11.0 | 0.00 | 0.07 | 0.00 | 75 | 1011.0 |
| 20260509180203 | 77 | 157 | 4.0 | 8.0 | 0.00 | 0.07 | 0.00 | 74 | 1011.1 |
| 20260509175701 | 78 | 217 | 4.0 | 8.0 | 0.00 | 0.07 | 0.00 | 74 | 1010.9 |
| 20260509175202 | 78 | 180 | 3.0 | 9.0 | 0.00 | 0.07 | 0.00 | 74 | 1011.0 |
| 20260509174701 | 78 | 178 | 3.0 | 9.0 | 0.00 | 0.07 | 0.00 | 72 | 1010.9 |
| 20260509174205 | 79 | 204 | 3.0 | 8.0 | 0.00 | 0.07 | 0.00 | 73 | 1010.8 |
| 20260509173703 | 79 | 211 | 4.0 | 10.0 | 0.00 | 0.07 | 0.00 | 73 | 1010.8 |
| 20260509173202 | 79 | 221 | 4.0 | 10.0 | 0.00 | 0.07 | 0.00 | 72 | 1010.7 |
| 20260509173025 | 79 | 219 | 3.0 | 9.0 | 0.00 | 0.07 | 0.00 | 73 | 1010.7 |
| 20260509172201 | 79 | 256 | 3.0 | 9.0 | 0.00 | 0.07 | 0.00 | 73 | 1010.7 |
| 20260509172028 | 79 | 198 | 3.0 | 7.0 | 0.00 | 0.07 | 0.00 | 74 | 1010.7 |
| 20260509171524 | 78 | 218 | 3.0 | 9.0 | 0.00 | 0.07 | 0.00 | 73 | 1010.7 |
| 20260509170701 | 79 | 189 | 3.0 | 9.0 | 0.00 | 0.07 | 0.00 | 72 | 1010.7 |
| 20260509170202 | 79 | 154 | 3.0 | 9.0 | 0.00 | 0.07 | 0.00 | 75 | 1010.7 |
| 20260509165702 | 79 | 202 | 4.0 | 9.0 | 0.00 | 0.07 | 0.00 | 73 | 1010.8 |
| 20260509165201 | 79 | 180 | 3.0 | 9.0 | 0.00 | 0.07 | 0.00 | 74 | 1010.8 |
| 20260509164703 | 79 | 166 | 2.0 | 9.0 | 0.00 | 0.07 | 0.00 | 75 | 1010.9 |
| 20260509164201 | 79 | 190 | 2.0 | 7.0 | 0.00 | 0.07 | 0.00 | 75 | 1011.0 |
| 20260509163701 | 79 | 225 | 2.0 | 5.0 | 0.00 | 0.07 | 0.00 | 76 | 1011.1 |
| 20260509163527 | 79 | 169 | 3.0 | 6.0 | 0.00 | 0.07 | 0.00 | 75 | 1011.1 |
| 20260509162709 | 79 | 210 | 3.0 | 9.0 | 0.00 | 0.07 | 0.00 | 75 | 1011.0 |
| 20260509162211 | 79 | 175 | 3.0 | 9.0 | 0.00 | 0.07 | 0.00 | 74 | 1011.0 |
| 20260509161707 | 79 | 209 | 3.0 | 9.0 | 0.00 | 0.07 | 0.00 | 74 | 1011.0 |
| 20260509161208 | 79 | 164 | 3.0 | 9.0 | 0.00 | 0.07 | 0.00 | 74 | 1011.0 |
| 20260509160704 | 80 | 155 | 3.0 | 9.0 | 0.00 | 0.07 | 0.00 | 74 | 1011.0 |
| 20260509160202 | 80 | 226 | 2.0 | 9.0 | 0.00 | 0.07 | 0.00 | 75 | 1011.1 |
| 20260509155701 | 79 | 221 | 3.0 | 9.0 | 0.00 | 0.07 | 0.00 | 76 | 1011.0 |
| 20260509155205 | 79 | 140 | 3.0 | 9.0 | 0.00 | 0.07 | 0.00 | 75 | 1011.0 |
| 20260509154701 | 79 | 134 | 3.0 | 7.0 | 0.00 | 0.07 | 0.00 | 76 | 1011.2 |
| 20260509154203 | 78 | 169 | 4.0 | 9.0 | 0.00 | 0.07 | 0.00 | 78 | 1011.2 |
| 20260509153701 | 78 | 175 | 3.0 | 9.0 | 0.00 | 0.07 | 0.00 | 77 | 1011.2 |
| 20260509153205 | 77 | 102 | 2.0 | 6.0 | 0.00 | 0.07 | 0.00 | 79 | 1011.3 |
| 20260509153025 | 77 | 149 | 2.0 | 9.0 | 0.00 | 0.07 | 0.00 | 79 | 1011.3 |
| 20260509152157 | 77 | 169 | 2.0 | 9.0 | 0.00 | 0.07 | 0.00 | 80 | 1011.3 |
| 20260509151655 | 77 | 167 | 3.0 | 10.0 | 0.00 | 0.07 | 0.00 | 80 | 1011.3 |
| 20260509151154 | 77 | 200 | 4.0 | 10.0 | 0.00 | 0.07 | 0.00 | 78 | 1011.4 |
| 20260509150653 | 77 | 158 | 3.0 | 8.0 | 0.00 | 0.07 | 0.00 | 80 | 1011.3 |
| 20260509150154 | 76 | 167 | 2.0 | 7.0 | 0.00 | 0.07 | 0.00 | 80 | 1011.5 |
| 20260509145653 | 76 | 139 | 3.0 | 7.0 | 0.00 | 0.07 | 0.00 | 79 | 1011.6 |
| 20260509145154 | 76 | 175 | 2.0 | 7.0 | 0.00 | 0.07 | 0.00 | 80 | 1011.6 |
| 20260509144656 | 76 | 191 | 2.0 | 6.0 | 0.00 | 0.07 | 0.00 | 80 | 1011.5 |
| 20260509144515 | 75 | 134 | 2.0 | 6.0 | 0.00 | 0.07 | 0.00 | 81 | 1011.6 |
| 20260509144017 | 75 | 150 | 2.0 | 7.0 | 0.00 | 0.07 | 0.00 | 81 | 1011.6 |
| 20260509143156 | 75 | 179 | 2.0 | 7.0 | 0.00 | 0.07 | 0.00 | 81 | 1011.6 |
| 20260509142653 | 75 | 152 | 3.0 | 7.0 | 0.00 | 0.07 | 0.00 | 79 | 1011.5 |
| 20260509142154 | 75 | 142 | 3.0 | 7.0 | 0.00 | 0.07 | 0.00 | 79 | 1011.6 |
| 20260509141654 | 75 | 127 | 3.0 | 7.0 | 0.00 | 0.07 | 0.00 | 79 | 1011.6 |
| 20260509141154 | 74 | 171 | 3.0 | 8.0 | 0.00 | 0.07 | 0.00 | 80 | 1011.6 |
| 20260509140650 | 74 | 140 | 3.0 | 8.0 | 0.00 | 0.07 | 0.00 | 80 | 1011.5 |
| 20260509140151 | 74 | 138 | 3.0 | 7.0 | 0.00 | 0.07 | 0.00 | 82 | 1011.5 |
| 20260509135650 | 74 | 130 | 3.0 | 7.0 | 0.00 | 0.07 | 0.00 | 84 | 1011.4 |
| 20260509135152 | 74 | 146 | 2.0 | 7.0 | 0.00 | 0.07 | 0.00 | 84 | 1011.4 |
| 20260509134650 | 73 | 182 | 1.0 | 6.0 | 0.00 | 0.07 | 0.00 | 85 | 1011.4 |
| 20260509134152 | 73 | 113 | 2.0 | 6.0 | 0.00 | 0.07 | 0.00 | 84 | 1011.4 |
| 20260509133651 | 73 | 153 | 2.0 | 6.0 | 0.00 | 0.07 | 0.00 | 84 | 1011.5 |
| 20260509133153 | 73 | 225 | 2.0 | 7.0 | 0.00 | 0.07 | 0.00 | 85 | 1011.5 |
| 20260509132653 | 73 | 159 | 3.0 | 7.0 | 0.00 | 0.07 | 0.00 | 85 | 1011.4 |
| 20260509132152 | 73 | 138 | 3.0 | 7.0 | 0.00 | 0.07 | 0.00 | 85 | 1011.3 |
| 20260509131647 | 73 | 167 | 2.0 | 5.0 | 0.00 | 0.07 | 0.00 | 84 | 1011.4 |
| 20260509131509 | 73 | 206 | 2.0 | 6.0 | 0.00 | 0.07 | 0.00 | 85 | 1011.4 |
| 20260509130647 | 73 | 184 | 2.0 | 6.0 | 0.00 | 0.07 | 0.00 | 87 | 1011.3 |
| 20260509130147 | 72 | 167 | 1.0 | 5.0 | 0.00 | 0.07 | 0.00 | 88 | 1011.3 |
| 20260509125646 | 72 | 169 | 1.0 | 4.0 | 0.00 | 0.07 | 0.00 | 89 | 1011.2 |
| 20260509125145 | 72 | 207 | 1.0 | 3.0 | 0.00 | 0.07 | 0.00 | 89 | 1011.2 |
| 20260509124645 | 71 | 135 | 1.0 | 3.0 | 0.00 | 0.07 | 0.00 | 90 | 1011.1 |
| 20260509124148 | 71 | 135 | 2.0 | 7.0 | 0.00 | 0.07 | 0.00 | 90 | 1011.1 |
| 20260509123719 | 71 | 152 | 2.0 | 5.0 | 0.00 | 0.07 | 0.00 | 93 | 1011.1 |
| 20260509123702 | 71 | 154 | 2.0 | 7.0 | 0.00 | 0.07 | 0.00 | 90 | 1011.2 |
| 20260509122142 | 71 | 128 | 2.0 | 5.0 | 0.00 | 0.07 | 0.00 | 93 | 1010.8 |
| 20260509121641 | 70 | 140 | 1.0 | 5.0 | 0.00 | 0.07 | 0.00 | 94 | 1011.0 |
| 20260509121143 | 70 | 119 | 0.0 | 4.0 | 0.00 | 0.07 | 0.00 | 95 | 1010.9 |
| 20260509120959 | 70 | 93 | 1.0 | 4.0 | 0.00 | 0.07 | 0.00 | 96 | 1010.9 |
| 20260509120503 | 69 | 121 | 1.0 | 4.0 | 0.00 | 0.07 | 0.00 | 96 | 1010.8 |
| 20260509115644 | 69 | 78 | 1.0 | 4.0 | 0.00 | 0.07 | 0.00 | 96 | 1010.7 |
| 20260509115143 | 69 | 92 | 1.0 | 3.0 | 0.00 | 0.07 | 0.00 | 96 | 1010.8 |
| 20260509114643 | 69 | 101 | 1.0 | 3.0 | 0.00 | 0.07 | 0.00 | 96 | 1010.9 |
| 20260509114142 | 69 | 128 | 1.0 | 2.0 | 0.00 | 0.07 | 0.00 | 96 | 1011.0 |
| 20260509113642 | 68 | 111 | 1.0 | 2.0 | 0.00 | 0.07 | 0.00 | 96 | 1011.1 |
| 20260509113142 | 68 | 111 | 0.0 | 2.0 | 0.00 | 0.07 | 0.00 | 96 | 1011.0 |
| 20260509112643 | 68 | 111 | 0.0 | 2.0 | 0.00 | 0.07 | 0.00 | 96 | 1010.9 |
| 20260509112142 | 68 | 111 | 0.0 | 2.0 | 0.00 | 0.07 | 0.00 | 96 | 1010.8 |
| 20260509111638 | 67 | 111 | 0.0 | 2.0 | 0.00 | 0.07 | 0.00 | 96 | 1010.7 |
| 20260509111136 | 67 | 111 | 0.0 | 2.0 | 0.00 | 0.07 | 0.00 | 96 | 1010.6 |
| 20260509110947 | 67 | 111 | 0.0 | 2.0 | 0.00 | 0.07 | 0.00 | 96 | 1010.5 |
| 20260509110132 | 67 | 111 | 1.0 | 2.0 | 0.00 | 0.07 | 0.00 | 96 | 1010.4 |
| 20260509105632 | 67 | 108 | 1.0 | 2.0 | 0.00 | 0.07 | 0.00 | 96 | 1010.3 |
| 20260509105131 | 67 | 109 | 0.0 | 2.0 | 0.00 | 0.07 | 0.00 | 96 | 1010.3 |
| 20260509104630 | 67 | 109 | 0.0 | 1.0 | 0.00 | 0.07 | 0.00 | 95 | 1010.3 |
| 20260509104131 | 67 | 109 | 1.0 | 2.0 | 0.00 | 0.07 | 0.00 | 95 | 1010.2 |
| 20260509103624 | 67 | 101 | 1.0 | 2.0 | 0.00 | 0.07 | 0.00 | 95 | 1010.0 |
| 20260509103119 | 67 | 53 | 1.0 | 2.0 | 0.00 | 0.07 | 0.00 | 95 | 1010.0 |
| 20260509102625 | 67 | 53 | 1.0 | 2.0 | 0.00 | 0.07 | 0.00 | 95 | 1009.9 |
| 20260509102118 | 67 | 53 | 1.0 | 2.0 | 0.00 | 0.07 | 0.00 | 95 | 1010.0 |
| 20260509101617 | 67 | 53 | 1.0 | 2.0 | 0.00 | 0.07 | 0.00 | 95 | 1010.0 |
| 20260509101118 | 67 | 53 | 1.0 | 2.0 | 0.00 | 0.07 | 0.00 | 95 | 1010.0 |
| 20260509100617 | 67 | 53 | 1.0 | 2.0 | 0.00 | 0.07 | 0.00 | 95 | 1009.9 |
| 20260509100116 | 67 | 9 | 1.0 | 2.0 | 0.00 | 0.07 | 0.00 | 95 | 1009.8 |
| 20260509095616 | 68 | 9 | 1.0 | 4.0 | 0.00 | 0.07 | 0.00 | 95 | 1009.9 |
| 20260509095113 | 68 | 96 | 1.0 | 4.0 | 0.00 | 0.07 | 0.00 | 95 | 1009.8 |
| 20260509094611 | 68 | 96 | 1.0 | 8.0 | 0.00 | 0.07 | 0.00 | 95 | 1009.5 |
| 20260509094109 | 68 | 96 | 2.0 | 8.0 | 0.00 | 0.07 | 0.00 | 95 | 1009.5 |
| 20260509093608 | 68 | 103 | 2.0 | 8.0 | 0.00 | 0.07 | 0.00 | 95 | 1009.5 |
| 20260509093107 | 68 | 123 | 3.0 | 8.0 | 0.00 | 0.07 | 0.00 | 95 | 1009.6 |
| 20260509092605 | 67 | 107 | 3.0 | 8.0 | 0.00 | 0.07 | 0.00 | 95 | 1009.5 |
| 20260509092103 | 67 | 113 | 2.0 | 7.0 | 0.00 | 0.07 | 0.00 | 95 | 1009.6 |
| 20260509091601 | 68 | 107 | 2.0 | 4.0 | 0.00 | 0.07 | 0.00 | 95 | 1009.8 |
| 20260509091101 | 68 | 65 | 1.0 | 4.0 | 0.00 | 0.07 | 0.00 | 95 | 1009.9 |
| 20260509090602 | 68 | 74 | 1.0 | 4.0 | 0.00 | 0.07 | 0.00 | 95 | 1010.1 |
| 20260509090104 | 68 | 98 | 2.0 | 4.0 | 0.00 | 0.07 | 0.00 | 95 | 1010.0 |
| 20260509085602 | 68 | 112 | 2.0 | 4.0 | 0.00 | 0.07 | 0.00 | 95 | 1010.0 |
| 20260509085055 | 68 | 96 | 1.0 | 2.0 | 0.00 | 0.07 | 0.00 | 95 | 1010.3 |
| 20260509084549 | 68 | 96 | 0.0 | 2.0 | 0.00 | 0.07 | 0.00 | 95 | 1010.3 |
| 20260509084043 | 68 | 96 | 1.0 | 6.0 | 0.00 | 0.07 | 0.00 | 95 | 1010.4 |
| 20260509083544 | 68 | 96 | 2.0 | 6.0 | 0.00 | 0.07 | 0.00 | 95 | 1010.2 |
| 20260509083042 | 68 | 138 | 3.0 | 7.0 | 0.00 | 0.07 | 0.00 | 95 | 1010.1 |
| 20260509082537 | 68 | 119 | 3.0 | 7.0 | 0.00 | 0.07 | 0.00 | 95 | 1010.0 |
| 20260509082037 | 68 | 106 | 3.0 | 6.0 | 0.00 | 0.07 | 0.00 | 95 | 1009.9 |
| 20260509081537 | 68 | 132 | 2.0 | 3.0 | 0.00 | 0.07 | 0.00 | 95 | 1010.2 |
| 20260509081035 | 68 | 257 | 0.0 | 3.0 | 0.00 | 0.07 | 0.00 | 95 | 1010.2 |
| 20260509080535 | 68 | 257 | 0.0 | 1.0 | 0.00 | 0.07 | 0.00 | 95 | 1010.1 |
| 20260509080033 | 68 | 257 | 0.0 | 4.0 | 0.00 | 0.07 | 0.00 | 95 | 1010.2 |
| 20260509075532 | 68 | 257 | 0.0 | 4.0 | 0.00 | 0.07 | 0.00 | 95 | 1010.3 |
| 20260509075032 | 68 | 257 | 1.0 | 4.0 | 0.00 | 0.07 | 0.00 | 95 | 1010.4 |
| 20260509074531 | 68 | 197 | 1.0 | 4.0 | 0.00 | 0.07 | 0.00 | 95 | 1010.3 |
| 20260509074030 | 68 | 20 | 1.0 | 4.0 | 0.00 | 0.07 | 0.00 | 95 | 1010.5 |
| 20260509073530 | 68 | 86 | 0.0 | 2.0 | 0.00 | 0.07 | 0.00 | 95 | 1010.6 |
| 20260509073030 | 68 | 86 | 0.0 | 2.0 | 0.00 | 0.07 | 0.00 | 94 | 1010.6 |
| 20260509072531 | 68 | 86 | 0.0 | 2.0 | 0.00 | 0.07 | 0.00 | 94 | 1010.7 |
| 20260509072031 | 68 | 86 | 1.0 | 3.0 | 0.00 | 0.07 | 0.00 | 94 | 1010.7 |
| 20260509071531 | 68 | 86 | 1.0 | 3.0 | 0.00 | 0.07 | 0.00 | 95 | 1010.7 |
| 20260509071030 | 68 | 109 | 1.0 | 3.0 | 0.00 | 0.07 | 0.00 | 94 | 1010.7 |
| 20260509070531 | 68 | 64 | 2.0 | 4.0 | 0.00 | 0.07 | 0.00 | 94 | 1010.6 |
| 20260509070034 | 68 | 112 | 2.0 | 5.0 | 0.00 | 0.07 | 0.00 | 94 | 1010.8 |
| 20260509065531 | 68 | 115 | 2.0 | 5.0 | 0.00 | 0.07 | 0.00 | 94 | 1010.7 |
| 20260509065030 | 68 | 46 | 2.0 | 5.0 | 0.00 | 0.07 | 0.00 | 94 | 1010.3 |
| 20260509064531 | 68 | 33 | 3.0 | 5.0 | 0.00 | 0.07 | 0.00 | 95 | 1010.5 |
| 20260509064030 | 68 | 22 | 2.0 | 4.0 | 0.00 | 0.07 | 0.00 | 95 | 1010.6 |
| 20260509063857 | 68 | 0 | 1.0 | 4.0 | 0.00 | 0.07 | 0.00 | 95 | 1010.9 |
| 20260509063030 | 68 | 217 | 1.0 | 3.0 | 0.00 | 0.07 | 0.00 | 94 | 1011.1 |
| 20260509062540 | 68 | 32 | 1.0 | 3.0 | 0.00 | 0.07 | 0.00 | 94 | 1011.0 |
| 20260509062035 | 68 | 102 | 1.0 | 2.0 | 0.00 | 0.07 | 0.00 | 94 | 1011.3 |
| 20260509061539 | 68 | 77 | 1.0 | 2.0 | 0.00 | 0.07 | 0.00 | 94 | 1011.3 |
| 20260509061343 | 68 | 77 | 1.0 | 8.0 | 0.00 | 0.07 | 0.00 | 94 | 1011.4 |
| 20260509060534 | 68 | 65 | 1.0 | 8.0 | 0.00 | 0.07 | 0.00 | 94 | 1011.4 |
| 20260509060031 | 68 | 63 | 3.0 | 10.0 | 0.00 | 0.07 | 0.00 | 94 | 1011.3 |
| 20260509055529 | 68 | 100 | 3.0 | 10.0 | 0.00 | 0.07 | 0.00 | 94 | 1010.5 |
| 20260509055031 | 67 | 106 | 3.0 | 9.0 | 0.00 | 0.07 | 0.00 | 94 | 1010.4 |
| 20260509054531 | 67 | 78 | 4.0 | 10.0 | 0.00 | 0.07 | 0.00 | 94 | 1010.6 |
| 20260509054029 | 67 | 94 | 4.0 | 10.0 | 0.00 | 0.07 | 0.00 | 95 | 1011.1 |
| 20260509053525 | 67 | 71 | 4.0 | 7.0 | 0.00 | 0.07 | 0.00 | 94 | 1011.1 |
| 20260509053019 | 67 | 96 | 3.0 | 7.0 | 0.00 | 0.07 | 0.00 | 94 | 1011.2 |
| 20260509052517 | 67 | 90 | 3.0 | 6.0 | 0.00 | 0.07 | 0.00 | 94 | 1011.1 |
| 20260509052017 | 67 | 78 | 3.0 | 7.0 | 0.00 | 0.07 | 0.00 | 94 | 1011.3 |
| 20260509051838 | 67 | 92 | 2.0 | 7.0 | 0.00 | 0.07 | 0.00 | 94 | 1011.3 |
| 20260509051018 | 67 | 71 | 1.0 | 3.0 | 0.00 | 0.07 | 0.00 | 94 | 1011.4 |
| 20260509050517 | 67 | 78 | 1.0 | 3.0 | 0.00 | 0.07 | 0.00 | 94 | 1011.3 |
| 20260509050019 | 67 | 38 | 1.0 | 2.0 | 0.00 | 0.07 | 0.00 | 94 | 1011.5 |
| 20260509045515 | 67 | 38 | 1.0 | 2.0 | 0.00 | 0.07 | 0.00 | 94 | 1011.9 |
| 20260509045013 | 67 | 38 | 1.0 | 3.0 | 0.00 | 0.07 | 0.00 | 94 | 1011.9 |